Regional Weather Roundup
Issued by NWS

Home | Current Version | Previous Version | Text Only | Print | Product List | Glossary On
Versions: 1 2 3 4 5 6 7 8 9 10 11 12 13 14 15 16 17 18 19 20 21 22 23 24 25 26 27 28 29 30 31 32 33 34 35 36 37 38 39 40 41 42 43 44 45 46 47 48 49 50
396
ASUS43 KFSD 231510
RWRSD

WEATHER ROUNDUP FOR SOUTH DAKOTA
NATIONAL WEATHER SERVICE SIOUX FALLS SD
1000 AM CDT FRI JUN 23 2017

NOTE: "FAIR" INDICATES FEW OR NO CLOUDS BELOW 12,000 FEET WITH NO
SIGNIFICANT WEATHER AND/OR OBSTRUCTIONS TO VISIBILITY.


SDZ001>005-009-010-012>017-231600-
NORTHWEST AND NORTH CENTRAL SOUTH DAKOTA

CITY           SKY/WX    TMP DP  RH WIND       PRES   REMARKS
BUFFALO          N/A     58  34  40 NW32G43   30.12F
FAITH            N/A     55  39  54 NW20G35   30.14F
MOBRIDGE       PTSUNNY   60  42  51 NW18G29   30.04S
$$

SDZ012>016-024>037-041>051-057-063-072>074-231600-
SOUTHWEST AND SOUTH CENTRAL SOUTH DAKOTA

CITY           SKY/WX    TMP DP  RH WIND       PRES   REMARKS
RAPID CTY ARPT MOSUNNY   59  39  47 N23G30    30.20F
PIERRE         CLOUDY    58  47  66 NW18G31   30.10S
CUSTER         SUNNY     51  27  39 W8        30.23S
ELLSWORTH AFB  PTSUNNY   56  39  52 NW22      30.19
PHILIP         MOSUNNY   62  41  46 NW25G33   30.15S
PINE RIDGE     MOSUNNY   59  42  53 N10       30.20S
SPEARFISH      PTSUNNY   52  37  58 W17G26    30.23R
WINNER         PTSUNNY   64  46  52 NW24G33   30.10F
$$

SDZ004>011-016>023-039-040-231600-
NORTHEAST SOUTH DAKOTA

CITY           SKY/WX    TMP DP  RH WIND       PRES   REMARKS
ABERDEEN       CLOUDY    59  48  67 NW22G29   29.99R
WATERTOWN      LGT RAIN  56  52  86 NW23G31   29.95R
BROOKINGS      CLOUDY    61  51  70 NW24      29.94S
SISSETON         N/A     64  50  60 NW25G33   29.89S
$$

SDZ017-020-022-023-036>040-048>070-231600-
SOUTHEAST SOUTH DAKOTA

CITY           SKY/WX    TMP DP  RH WIND       PRES   REMARKS
SIOUX FALLS    CLOUDY    63  53  70 NW23G30   29.97R
HURON          CLOUDY    62  51  67 NW28G36   30.00R
CHAMBERLAIN    CLOUDY    61  49  65 NW16      30.08S
MITCHELL       CLOUDY    63  50  62 NW25G35   30.02R
YANKTON        CLOUDY    62  50  64 NW22G30   30.03R
$$

ABBREVIATIONS USED IN REMARKS
   TC - TEMPERATURE IN CELSIUS
  WCI - WIND CHILL INDEX
   HX - HEAT INDEX
  VSB - VISIBILITY





USA.gov is the U.S. government's official web portal to all federal, state and local government web resources and services.